Regional Weather Roundup
Issued by NWS Charleston, SC

Current Version | Previous Version | Graphics & Text | Print | Product List | Glossary On
Versions: 1 2 3 4 5 6 7 8 9 10 11 12 13 14 15 16 17 18 19 20 21 22 23 24 25 26 27 28 29 30 31 32 33 34 35 36 37 38 39 40 41 42 43 44 45 46 47 48 49 50
000 ASUS42 KCHS 211027 RWRCHS REGIONAL WEATHER ROUNDUP NATIONAL WEATHER SERVICE CHARLESTON SC 600 AM EDT FRI JUL 21 2017 NOTE: "FAIR" INDICATES FEW OR NO CLOUDS BELOW 12,000 FEET WITH NO SIGNIFICANT WEATHER AND/OR OBSTRUCTIONS TO VISIBILITY. NOT ALL STATIONS ARE QUALITY CONTROLLED. USE DATA WITH CAUTION... ESPECIALLY DEWPOINT OBSERVATIONS. SCZ027-030-031-034>040-042>050-211100- ...SOUTHEAST SOUTH CAROLINA... CITY SKY/WX TMP DP RH WIND PRES REMARKS N CHARLESTON PTCLDY 72 69 90 S3 30.02R WATERFRONT PRK N/A 77 74 91 VRB2 30.00R JOHNS ISLAND FAIR 73 73 100 CALM 30.03R PINOPOLIS N/A 75 72 88 CALM 29.94R MONCKS CORNER FAIR 70 68 94 CALM 30.02R SUMMERVILLE FAIR 70 70 100 CALM 30.03S BEAUFORT MCAS CLEAR 74 72 93 CALM 30.02R BEAUFORT ARPT FAIR 73 70 88 CALM 30.02R HILTON HEAD IS NOT AVBL WALTERBORO SUNNY 70 68 94 CALM 30.03R ALLENDALE N/A N/A N/A N/A MISG N/A ...SOUTHERN MIDLANDS AND PEE DEE... CITY SKY/WX TMP DP RH WIND PRES REMARKS GEORGETOWN FAIR 73 73 100 SW5 30.03R KINGSTREE FAIR 70 68 94 CALM 30.01R ORANGEBURG CLEAR 72 70 93 CALM 30.01S BARNWELL FAIR 73 73 100 CALM 30.01S AIKEN FAIR 70 70 100 CALM 30.05R MANNING FAIR 72 72 100 CALM 30.02R COLUMBIA PTCLDY 74 70 87 VRB3 30.00R SUMTER CLEAR 73 70 93 S3 29.99R FLORENCE PTCLDY 74 73 97 CALM 30.01R MYRTLE BEACH CLEAR 76 74 93 W3 30.02R N MYRTLE BEACH CLEAR 76 75 97 CALM 30.00R $$ GAZ063-065-086>088-099>101-113>116-118-119-134>141-150-211100- ...SOUTHEAST GEORGIA... CITY SKY/WX TMP DP RH WIND PRES REMARKS SAVANNAH ARPT CLEAR 73 69 87 S3 30.02S HUNTER AAF CLEAR 71 69 96 CALM 30.00R FORT STEWART CLEAR 71 69 94 CALM 30.00R STATESBORO CLEAR 72 32 23 CALM 30.01S SYLVANIA SUNNY 71 71 100 CALM 30.02S CLAXTON FAIR 71 71 98 CALM 30.02R ...CSRA...CENTRAL AND FAR SOUTHEAST GEORGIA... CITY SKY/WX TMP DP RH WIND PRES REMARKS THOMSON CLEAR 73 71 94 CALM 30.06R AUGUSTA-BUSH CLEAR 74 72 93 CALM 30.00R FOG AUGUSTA-DANIEL CLEAR 75 70 84 SE5 30.01S SWAINSBORO FAIR 72 72 100 CALM 30.02S VIDALIA CLEAR 73 72 94 CALM 30.02R EASTMAN FAIR 75 74 97 CALM 30.03S HAZLEHURST FAIR 74 74 100 CALM 30.00R ALMA CLEAR 71 69 93 CALM 30.00S WAYCROSS CLEAR 73 73 100 CALM 30.01S JESUP NOT AVBL BAXLEY FAIR 72 72 100 CALM 30.01S BRUNSWICK CLEAR 68 68 100 CALM 30.03R SAINT SIMONS CLEAR 74 70 87 CALM 30.01S $$ SCZ027-028-034-036>038-045-046-048>050-GAZ119-141-211100- ...LAKE AND SUPPLEMENTAL COASTAL OBSERVATIONS... STATION/POSITION TIME TEMP WIND PRES WAVE SWELL AIR SEA DIR/SP/G HT/PER HT/PER/DIR (UTC) (F) (DEG/KT/KT) (MB) (FT/S) (FT/S/D) WINYAH BAY 0945 77 260/ 4 1016.0S LAKE MURRAY 1020 78 240/ 3/ 5 1015.2 ACE BASIN NERRS 0945 73 CALM 1016.0S FORT PULASKI 1000 76 86 260/ 2/ 3 1016.9 SAPELO ISLAND 1000 72 CALM 1017.0 $$ ANZ835-935-AMZ111-154-330-350-352-354-370-450-454-472-211100- ...C-MAN AND BUOY OBSERVATIONS... STATION/POSITION TIME TEMP WIND PRES WAVE SWELL AIR SEA DIR/SP/G HT/PER HT/PER/DIR (UTC) (F) (DEG/KT/KT) (MB) (FT/S) (FT/S/D) BUOY 41004 1010 82 83 220/ 10/ 12 1015.9 BUOY 41008 0950 81 82 250/ 6/ 8 1015.8F 2/ 8 2/ 80/ 8 FOLLY BEACH CMAN 1000 77 300/ 5/ 7 1017.2R CAPERS NEARSHORE 1008 78 83 290/ 12/ 14 1016.3R FRIPP NEARSHORE 1008 80 83 280/ 6/ 8 1016.1R STATION/POSITION TIME TEMP WIND PRES WAVE SWELL AIR SEA DIR/SP/G HT/PER HT/PER/DIR (UTC) (F) (DEG/KT/KT) (MB) (FT/S) (FT/S/D) 5E ST. MARYS GA 1000 82 N/A 2/ 7 FRYING PAN BUOY 1010 82 84 260/ 10/ 12 1015.8 BUOY 41025 0950 82 84 260/ 12/ 14 1015.2R 3/ 4 2/130/ 8 CAPE LOOKOUT NC 1000 80 250/ 9/ 11 1015.4R BUOY 41002 0950 81 83 200/ 8/ 10 1017.3R 3/ 8 3/100/ 8 BUOY 41010 1010 79 85 150/ 16/ 19 1016.8 ST AUGUSTINE FL 1000 75 82 250/ 4/ 4 1016.5F $$

USA.gov is the U.S. government's official web portal to all federal, state and local government web resources and services.